Location: Acheville
(50.3840°N, 2.8827°E)
Time: 15:46:35
(UTC+00:00)

Cosmos 1455 Rocket - Pass Details

Date: 24 October 2021
Orbit: 604 x 630 km, 82.5° (Epoch: 27 November)

Event Time Altitude Azimuth Distance (km) Brightness Sun altitude
Rises 17:06:27 0° 170° (S) 2,895 6.5 -5.1°
Reaches altitude 10° 17:08:44 10° 164° (SSE) 1,996 5.6 -5.5°
Maximum altitude 17:12:56 43° 93° (E) 884 3.4 -6.1°
Drops below altitude 10° 17:17:10 10° 22° (NNE) 2,021 5.4 -6.8°
Sets 17:19:30 0° 16° (NNE) 2,935 6.3 -7.2°
